• In Hungary
  • List of Countries
  • For 7 days
  • Water Temperature
  • Satellite Maps
  • Weather Map
  • News
  • Weather Widgets
  • user-avatar
    Login

    Hourly Weather Hotuti

    Today, 21 September, Friday

    Time Temperature Precipitation Wind Pressure Humidity
    00:00 +14°C° 0 mm 2 mps 749 mmHg 93%
    01:00 +14°C° 0 mm 2 mps 749 mmHg 94%
    02:00 +14°C° 0 mm 2 mps 749 mmHg 95%
    03:00 +14°C° 0 mm 2 mps 750 mmHg 95%
    04:00 +14°C° 0 mm 2 mps 750 mmHg 95%
    05:00 +14°C° 0 mm 2 mps 750 mmHg 95%
    06:00 +15°C° 0 mm 2 mps 750 mmHg 90%
    07:00 +16°C° 0 mm 2 mps 750 mmHg 85%
    08:00 +18°C° 0 mm 2 mps 750 mmHg 80%
    09:00 +19°C° 0 mm 2 mps 751 mmHg 75%
    10:00 +21°C° 0 mm 3 mps 751 mmHg 70%
    11:00 +24°C° 0 mm 3 mps 751 mmHg 64%
    12:00 +24°C° 0 mm 3 mps 751 mmHg 63%
    13:00 +25°C° 0 mm 3 mps 751 mmHg 62%
    14:00 +25°C° 0 mm 3 mps 751 mmHg 61%
    15:00 +24°C° 0.1 mm 3 mps 750 mmHg 67%
    16:00 +23°C° 0.1 mm 2 mps 750 mmHg 73%
    17:00 +21°C° 0.1 mm 2 mps 750 mmHg 79%
    18:00 +20°C° 0 mm 2 mps 750 mmHg 82%
    19:00 +19°C° 0 mm 2 mps 750 mmHg 86%
    20:00 +18°C° 0 mm 2 mps 750 mmHg 89%
    21:00 +17°C° 0 mm 2 mps 750 mmHg 89%
    22:00 +17°C° 0 mm 2 mps 750 mmHg 90%
    23:00 +16°C° 0 mm 2 mps 750 mmHg 90%

    Tomorrow, 22 September, Saturday

    Time Temperature Precipitation Wind Pressure Humidity
    00:00 +16°C° 0 mm 2 mps 750 mmHg 91%
    01:00 +16°C° 0 mm 2 mps 750 mmHg 91%
    02:00 +14°C° 0 mm 3 mps 749 mmHg 91%
    03:00 +14°C° 0 mm 3 mps 749 mmHg 92%
    04:00 +14°C° 0 mm 3 mps 749 mmHg 93%
    05:00 +14°C° 0 mm 3 mps 749 mmHg 94%
    06:00 +16°C° 0 mm 3 mps 748 mmHg 89%
    07:00 +18°C° 0 mm 4 mps 748 mmHg 84%
    08:00 +19°C° 0 mm 4 mps 748 mmHg 80%
    09:00 +21°C° 0 mm 5 mps 747 mmHg 72%
    10:00 +22°C° 0 mm 5 mps 747 mmHg 64%
    11:00 +24°C° 0 mm 6 mps 747 mmHg 56%
    12:00 +24°C° 0 mm 6 mps 746 mmHg 54%
    13:00 +24°C° 0 mm 6 mps 746 mmHg 53%
    14:00 +26°C° 0 mm 6 mps 745 mmHg 51%
    15:00 +23°C° 0 mm 5 mps 745 mmHg 56%
    16:00 +22°C° 0 mm 4 mps 745 mmHg 62%
    17:00 +21°C° 0 mm 4 mps 745 mmHg 67%
    18:00 +20°C° 0.2 mm 3 mps 745 mmHg 73%
    19:00 +18°C° 0.2 mm 3 mps 744 mmHg 79%
    20:00 +17°C° 0.2 mm 2 mps 744 mmHg 85%
    21:00 +16°C° 0.3 mm 2 mps 744 mmHg 87%
    22:00 +15°C° 0.3 mm 2 mps 744 mmHg 89%
    23:00 +14°C° 0.3 mm 2 mps 744 mmHg 90%

    Day after tomorrow, 23 September, Sunday

    Time Temperature Precipitation Wind Pressure Humidity
    00:00 +14°C° 0.4 mm 2 mps 744 mmHg 90%
    01:00 +13°C° 0.4 mm 2 mps 744 mmHg 90%
    02:00 +13°C° 0.4 mm 2 mps 744 mmHg 90%
    03:00 +12°C° 0.3 mm 2 mps 743 mmHg 91%
    04:00 +12°C° 0.3 mm 2 mps 743 mmHg 91%
    05:00 +12°C° 0.3 mm 2 mps 742 mmHg 91%
    06:00 +10°C° 0.8 mm 2 mps 742 mmHg 92%
    07:00 +10°C° 0.8 mm 3 mps 742 mmHg 92%
    08:00 +10°C° 0.8 mm 3 mps 741 mmHg 93%
    09:00 +9°C° 1.4 mm 3 mps 741 mmHg 93%
    10:00 +9°C° 1.4 mm 3 mps 741 mmHg 93%
    11:00 +9°C° 1.4 mm 3 mps 741 mmHg 93%
    12:00 +9°C° 1.4 mm 3 mps 741 mmHg 92%
    13:00 +10°C° 1.4 mm 3 mps 741 mmHg 92%
    14:00 +10°C° 1.4 mm 3 mps 741 mmHg 91%
    15:00 +10°C° 0.2 mm 2 mps 741 mmHg 91%
    16:00 +10°C° 0.2 mm 2 mps 741 mmHg 91%
    17:00 +10°C° 0.2 mm 2 mps 742 mmHg 91%
    18:00 +10°C° 0.1 mm 2 mps 742 mmHg 92%
    19:00 +9°C° 0.1 mm 2 mps 742 mmHg 93%
    20:00 +9°C° 0.1 mm 3 mps 742 mmHg 94%
    21:00 +8°C° 0 mm 3 mps 742 mmHg 94%
    22:00 +8°C° 0 mm 3 mps 742 mmHg 95%
    23:00 +7°C° 0 mm 3 mps 742 mmHg 95%

    24 September, Monday

    Time Temperature Precipitation Wind Pressure Humidity
    00:00 +7°C° 0 mm 3 mps 742 mmHg 95%
    01:00 +7°C° 0 mm 3 mps 742 mmHg 96%
    02:00 +5°C° 0 mm 3 mps 742 mmHg 96%
    03:00 +5°C° 0 mm 3 mps 742 mmHg 97%
    04:00 +5°C° 0 mm 3 mps 742 mmHg 97%
    05:00 +5°C° 0 mm 3 mps 742 mmHg 97%
    06:00 +7°C° 0 mm 3 mps 742 mmHg 95%
    07:00 +7°C° 0 mm 3 mps 742 mmHg 93%
    08:00 +8°C° 0 mm 3 mps 742 mmHg 91%
    09:00 +8°C° 0 mm 3 mps 742 mmHg 89%
    10:00 +9°C° 0 mm 3 mps 742 mmHg 86%
    11:00 +9°C° 0 mm 3 mps 742 mmHg 84%
    12:00 +10°C° 0 mm 3 mps 742 mmHg 79%
    13:00 +11°C° 0 mm 3 mps 743 mmHg 74%
    14:00 +12°C° 0 mm 2 mps 743 mmHg 70%
    15:00 +12°C° 0 mm 2 mps 742 mmHg 73%
    16:00 +10°C° 0 mm 2 mps 742 mmHg 77%
    17:00 +9°C° 0 mm 2 mps 741 mmHg 80%
    18:00 +9°C° 0.2 mm 2 mps 741 mmHg 84%
    19:00 +8°C° 0.2 mm 2 mps 741 mmHg 87%
    20:00 +8°C° 0.2 mm 2 mps 740 mmHg 90%
    21:00 +8°C° 0.5 mm 3 mps 740 mmHg 91%
    22:00 +8°C° 0.5 mm 3 mps 739 mmHg 92%
    23:00 +8°C° 0.5 mm 3 mps 738 mmHg 93%

    25 September, Tuesday

    Time Temperature Precipitation Wind Pressure Humidity
    00:00 +7°C° 1 mm 4 mps 738 mmHg 92%
    01:00 +7°C° 1 mm 5 mps 737 mmHg 92%
    02:00 +7°C° 1 mm 5 mps 736 mmHg 92%
    03:00 +7°C° 1.9 mm 6 mps 736 mmHg 92%
    04:00 +7°C° 1.9 mm 6 mps 735 mmHg 91%
    05:00 +5°C° 1.9 mm 7 mps 734 mmHg 91%
    06:00 +5°C° 2 mm 7 mps 734 mmHg 91%
    07:00 +5°C° 2 mm 7 mps 734 mmHg 92%
    08:00 +5°C° 2 mm 7 mps 733 mmHg 92%
    09:00 +7°C° 1.9 mm 6 mps 733 mmHg 92%
    10:00 +7°C° 1.9 mm 6 mps 733 mmHg 92%
    11:00 +7°C° 1.9 mm 6 mps 733 mmHg 92%
    12:00 +7°C° 1.9 mm 6 mps 733 mmHg 92%
    13:00 +7°C° 1.9 mm 6 mps 734 mmHg 92%
    14:00 +7°C° 1.9 mm 6 mps 734 mmHg 92%
    15:00 +7°C° 1.6 mm 6 mps 734 mmHg 92%
    16:00 +7°C° 1.6 mm 6 mps 735 mmHg 92%
    17:00 +5°C° 1.6 mm 6 mps 735 mmHg 92%
    18:00 +5°C° 1.1 mm 6 mps 735 mmHg 92%
    19:00 +5°C° 1.1 mm 6 mps 736 mmHg 92%
    20:00 +5°C° 1.1 mm 6 mps 736 mmHg 92%
    21:00 +5°C° 0.7 mm 7 mps 736 mmHg 91%
    22:00 +5°C° 0.7 mm 7 mps 737 mmHg 91%
    23:00 +5°C° 0.7 mm 7 mps 737 mmHg 90%

    26 September, Wednesday

    Time Temperature Precipitation Wind Pressure Humidity
    00:00 +5°C° 0.5 mm 7 mps 738 mmHg 90%
    01:00 +5°C° 0.5 mm 7 mps 739 mmHg 90%
    02:00 +5°C° 0.5 mm 7 mps 739 mmHg 89%
    03:00 +5°C° 0.3 mm 7 mps 740 mmHg 89%
    04:00 +5°C° 0.3 mm 6 mps 741 mmHg 89%
    05:00 +4°C° 0.3 mm 6 mps 742 mmHg 89%
    06:00 +4°C° 0.1 mm 6 mps 743 mmHg 88%
    07:00 +4°C° 0.1 mm 6 mps 743 mmHg 87%
    08:00 +4°C° 0.1 mm 6 mps 744 mmHg 87%
    09:00 +4°C° 0 mm 6 mps 745 mmHg 83%
    10:00 +4°C° 0 mm 6 mps 746 mmHg 80%
    11:00 +5°C° 0 mm 6 mps 747 mmHg 77%
    12:00 +5°C° 0 mm 6 mps 748 mmHg 74%
    13:00 +5°C° 0 mm 6 mps 748 mmHg 70%
    14:00 +6°C° 0 mm 5 mps 749 mmHg 67%
    15:00 +6°C° 0 mm 5 mps 749 mmHg 67%
    16:00 +5°C° 0 mm 4 mps 750 mmHg 67%
    17:00 +5°C° 0 mm 3 mps 750 mmHg 66%
    18:00 +4°C° 0 mm 3 mps 751 mmHg 67%
    19:00 +4°C° 0 mm 3 mps 751 mmHg 68%
    20:00 +3°C° 0 mm 3 mps 752 mmHg 69%
    21:00 +3°C° 0 mm 2 mps 752 mmHg 71%
    22:00 +2°C° 0 mm 2 mps 752 mmHg 74%
    23:00 +2°C° 0 mm 2 mps 753 mmHg 76%
    Show more